Flight Information

DEPARTURE
SAN DIEGO, CA
Elevation:
427
Runways:
10R/28L - 3401x60 - ASPH-G
H1 - 48x48 - ASPH-G
10L/28R - 4598x150 - ASPH-G
5/23 - 3400x75 - ASPH-TRTD-E
Active PE Departure:
28R - 28L
Current PE ATIS:
K
Altimeter:
30.00
Remarks:
ATIS:
126.9 858-277-3075
Clearance Delivery:
123.725
Ground:
118.22
Tower:
119.2 125.7
DESTINATION
,
Elevation:
TPA:
1000 (est.)


6752.3 NM74° True-13° Var61° HDG

Flight Plan:
(click to file on line)

1. Type
2. Aircraft Identification
3. Aircraft Type / Special Equipment
4. True Airspeed
kts
5. Departure Airport
(ICAO code)
6. Arriving Airport
(ICAO code)
7. Cruising Altitude
ft
8. Alternate Airport
(ICAO code)
9. Route of Flight
10. Remarks


00:00:00 Departure ATIS: Destination ATIS:

Clearance Limit:
Route:
Altitude: Expect in minutes
Frequency:
Transponder: (7500 Hijack / 7600 Lost Comms / 7700 Emergency)


KMYF 101553Z 00000KT 9SM CLR 22/17 A3000 RMK AO2 SLP153 T02220167
Time: 2020-07-10T15:53:00Z
1594397418
Winds: calm
Visibility: 9.0 sm
Clouds (AGL): CLR
Temperature: 22.2 C
Dew Point: 16.7 C
Pressure: 30.0 in Hgbr


Notes:

Data extracted from FAA Digital Chart Supplement. Effective: 0901Z Thursday, May 21, 2020 to 0901Z Thursday, Jul 16, 2020
Current ATIS data is provided courtisy of PilotEdge.